Simultaneous Nadir Overpasses (SNOs) Predictions

Prediction of SNOs between METOP-A and TERRA Satellite Orbit:

Table of predicted SNOs for the next 14.0 days since TLE Epoch: 1/19/2019
Index Date (METOP-A) Time (METOP-A) Lat,Lon (METOP-A) SZA (METOP-A ) Date (TERRA) Time (TERRA) Lat,Lon (TERRA) SZA (TERRA ) Distance(km) Time Diff (sec)
1 01/20/2019 12:57:42 81.44, 35.66 104.17 01/20/2019 12:57:46 81.44, 35.63 104.17 0.56 4
2 01/20/2019 13:48:22 -81.44,-156.68 75.81 01/20/2019 13:47:13 -81.44,-156.86 75.87 3.04 69
3 01/23/2019 08:31:57 81.44, 101.91 103.50 01/23/2019 08:32:01 81.43, 101.89 103.49 1.11 4
4 01/23/2019 09:22:36 -81.44, -90.03 76.44 01/23/2019 09:21:27 -81.45, -90.18 76.48 2.66 69
5 01/26/2019 04:06:10 81.44, 168.54 102.82 01/26/2019 04:06:14 81.44, 168.51 102.82 0.54 4
6 01/26/2019 04:56:50 -81.44, -23.80 77.16 01/26/2019 04:55:41 -81.44, -23.93 77.21 2.24 69
7 01/28/2019 23:40:24 81.44,-124.84 102.10 01/28/2019 23:40:28 81.45,-124.91 102.10 1.35 4
8 01/29/2019 00:31:04 -81.44, 42.82 77.88 01/29/2019 00:29:55 -81.45, 42.68 77.92 2.51 69
9 01/31/2019 19:14:39 81.44, -58.64 101.30 01/31/2019 19:14:43 81.43, -58.75 101.28 1.97 4




NCC Satellite Simultaneous Nadir Overpasses (SNOs) Prediction Service
